Location: Utrecht
(52.0917°N, 5.1178°E)
Time: 05:31:35
(UTC+02:00)

ISS - Pass Details

Date: 01 July 2021
Orbit: 419 x 421 km, 51.6° (Epoch: 29 July)

Event Time Altitude Azimuth Distance (km) Brightness Sun altitude
Exits shadow 04:18:06 - 197° (SSW) 1,564 -1.5 -7.6°
Reaches altitude 10° 04:18:18 10° 194° (SSW) 1,497 -1.5 -7.5°
Maximum altitude 04:20:51 20° 145° (SE) 1,031 -2.0 -7.3°
Drops below altitude 10° 04:23:24 10° 96° (E) 1,502 -0.5 -7.1°
Sets 04:25:51 0° 79° (E) 2,370 0.9 -6.9°
